Wind_Speed
84 84 91 93 95 97 97 99 96 95 96 94 88 84 80 78 81 83 79 78 77 75 69 73 73 66 63 62 59 57 56 57 58 60 60 53 53 56 54 53 51 49 46
98 98 98 96 95 96 98 100 93 93 90 88 83 80 79 80 83 88 87 85 85 86 78 71 71 71 66 63 61 61 61 60 60 62 64 61 58 59 60 57 54 52 47
98 97 96 97 90 89 91 92 94 92 88 83 84 86 85 82 81 83 84 81 80 83 84 82 81 79 76 72 69 68 65 63 64 65 67 67 65 62 63 64 60 55 51
92 94 94 91 89 88 90 87 83 80 80 81 82 85 86 87 88 90 86 84 82 81 79 79 80 74 70 70 71 72 69 67 68 68 66 69 72 71 68 68 69 62 59
83 83 84 83 83 80 76 75 76 77 79 80 79 80 80 78 78 79 78 78 75 73 73 71 69 70 70 68 68 71 69 71 71 70 70 73 76 77 76 73 72 72 64
74 75 74 71 72 72 74 74 74 75 75 75 77 78 80 78 77 77 77 78 77 77 79 78 78 77 78 79 80 79 79 76 73 75 75 76 78 78 80 80 78 77 76
64 63 64 63 65 67 69 71 73 74 76 79 80 80 79 79 79 79 82 85 87 88 88 88 88 88 87 87 87 87 89 89 88 83 81 81 82 83 83 84 83 82 79
55 54 57 62 64 67 70 72 72 75 77 79 78 77 76 78 81 82 85 89 92 96 99 100 100 99 98 97 97 97 98 98 99 98 94 92 90 88 85 87 88 89 88
53 57 62 66 69 72 74 76 77 77 77 77 79 78 77 78 82 87 93 97 101 105 108 112 112 111 110 107 106 106 106 107 108 110 109 104 101 101 98 93 90 93 94
60 62 67 69 72 75 78 78 78 79 79 80 82 85 88 89 91 93 98 100 104 108 112 116 116 112 109 104 100 97 96 99 102 104 108 110 107 104 106 106 100 96 97
62 67 71 75 79 82 81 79 79 81 83 87 91 94 97 100 100 99 97 98 99 100 101 105 105 101 100 99 98 95 92 92 94 96 100 102 106 105 102 105 109 107 101
70 75 79 82 85 82 82 82 84 89 94 96 99 102 103 97 96 96 98 98 95 100 103 104 103 99 97 96 95 94 94 94 92 92 94 96 98 99 101 104 107 112 112
77 81 84 85 83 81 85 89 93 96 101 105 108 108 103 98 98 104 104 99 98 97 94 97 96 92 88 86 84 84 83 81 82 82 84 85 87 89 91 101 104 109 114
82 86 87 84 84 84 88 95 98 103 108 111 109 107 103 100 100 105 109 101 93 87 87 89 89 83 80 78 76 73 72 73 73 74 76 79 82 84 85 91 100 106 111
87 87 85 85 85 90 92 98 103 108 112 110 106 105 106 106 107 105 105 99 89 87 88 89 84 81 74 69 67 66 66 65 64 66 68 70 75 79 83 88 93 100 106
89 89 88 87 90 95 100 103 108 112 107 106 105 108 108 108 109 106 100 96 94 88 84 83 80 75 71 66 63 62 64 63 63 63 64 63 64 70 76 82 89 96 102
90 91 90 92 94 99 105 109 112 109 107 106 108 109 109 103 102 100 98 94 90 87 79 74 72 71 67 64 62 61 61 61 60 60 62 62 63 66 68 73 82 90 95
92 93 92 94 98 104 108 112 108 105 105 107 109 110 107 103 99 97 93 87 83 76 71 67 69 66 63 59 57 57 57 56 57 56 57 60 63 63 67 71 76 82 91
93 94 96 100 104 109 111 107 104 104 105 106 104 101 99 98 94 89 84 80 74 69 67 63 62 60 59 55 54 53 53 52 53 53 53 56 60 64 66 68 72 77 84
96 97 102 107 108 108 105 104 103 105 104 103 99 97 94 90 85 81 77 72 68 66 64 60 56 55 54 51 49 51 50 49 49 48 50 52 55 60 62 64 69 76 81
98 104 108 109 107 103 102 104 106 104 103 101 99 95 89 83 80 77 74 69 65 63 60 57 54 53 50 50 48 46 47 46 43 45 49 48 51 54 59 64 67 70 73
106 110 111 107 103 103 103 105 102 101 97 96 95 90 82 78 74 71 69 66 62 59 57 54 51 49 47 48 45 42 42 42 42 39 48 45 48 51 55 61 65 65 68
111 110 108 106 103 105 105 104 103 99 97 93 89 85 81 77 72 68 65 63 60 56 53 53 51 48 48 46 41 39 39 38 39 37 45 43 46 48 50 57 62 62 67
111 109 108 107 104 105 105 102 98 97 95 91 84 80 79 74 69 66 63 60 55 53 50 48 48 45 44 44 42 39 36 36 38 38 40 39 43 45 48 53 57 58 64
112 109 108 106 106 104 101 100 96 89 88 85 81 77 74 70 66 62 60 58 54 50 47 46 45 45 43 41 40 37 37 37 35 37 38 39 39 38 42 47 51 56 60
111 111 110 109 106 101 98 97 94 87 83 80 76 71 69 65 61 59 57 55 51 48 45 43 43 43 40 38 37 36 36 35 34 35 33 35 34 32 34 41 47 53 58
Wind_Direction
283 283 283 287 289 288 289 291 295 295 295 294 295 294 293 294 293 293 295 293 291 291 288 288 285 281 279 276 272 268 264 254 253 251 249 245 239 239 237 236 237 239 236
283 285 288 290 290 291 292 292 294 292 293 292 291 291 290 287 284 284 284 286 285 285 285 281 279 280 276 274 273 267 262 257 253 251 248 245 242 237 238 234 235 235 235
282 285 287 289 291 292 292 291 291 290 291 290 290 290 289 287 286 284 284 285 283 282 281 281 282 279 277 272 269 266 261 256 253 248 247 246 245 239 236 236 233 233 231
282 285 288 291 290 290 291 291 292 291 292 291 290 288 287 286 286 287 287 284 282 279 277 274 270 272 275 273 268 263 259 255 252 249 244 246 243 240 237 235 235 232 228
287 288 288 288 289 290 290 289 290 290 291 291 291 291 290 290 290 289 290 289 288 286 284 281 279 276 270 269 269 268 262 256 254 251 245 241 240 240 239 235 234 232 230
283 283 286 288 288 289 290 292 292 292 292 293 292 293 294 293 292 291 289 288 287 285 282 279 277 275 273 273 272 269 267 263 257 253 247 242 240 236 236 235 232 231 227
284 284 286 291 295 297 296 296 295 295 294 292 292 294 294 294 293 292 289 288 287 284 281 279 276 274 271 270 267 266 267 266 262 257 253 248 241 237 233 232 231 228 228
288 295 299 300 299 300 302 300 297 295 295 296 296 295 294 295 295 293 291 290 288 287 285 282 279 276 274 271 269 267 263 262 263 262 256 250 248 244 240 233 229 227 225
295 295 298 304 307 307 307 306 303 302 299 297 296 296 293 293 293 293 293 292 291 289 286 283 281 279 277 275 272 269 267 264 262 261 260 257 249 248 246 243 236 229 225
301 305 307 307 306 306 305 304 301 300 300 299 298 298 299 297 295 294 292 290 287 286 285 284 285 284 282 279 275 270 266 264 262 258 255 255 253 249 246 245 244 236 229
305 305 305 306 307 307 306 304 304 304 303 303 303 303 303 302 299 297 294 291 289 288 286 285 284 282 280 280 278 276 271 266 260 258 256 254 251 247 243 240 242 241 236
305 306 307 308 309 308 307 308 308 308 307 306 306 305 306 304 301 300 298 296 295 292 291 287 284 283 282 280 278 277 274 270 268 264 259 256 253 249 245 240 235 236 237
308 309 309 310 310 310 310 309 308 309 309 308 307 308 307 305 304 301 299 297 297 296 292 288 286 286 284 282 280 276 274 272 267 263 259 256 252 249 243 241 237 232 230
309 309 310 310 310 309 309 309 310 310 310 311 310 308 307 305 303 302 301 301 299 299 296 292 291 290 288 285 282 279 274 268 265 260 255 252 249 246 242 236 235 233 229
312 312 311 309 308 309 310 310 310 310 311 310 307 307 308 307 304 303 303 303 304 302 300 297 296 294 291 287 284 279 275 271 266 261 255 249 246 243 240 237 232 230 228
312 311 310 309 308 309 310 310 311 312 310 309 308 307 307 306 305 305 306 305 306 305 301 298 296 294 293 290 285 281 277 273 269 264 258 252 247 242 239 236 233 230 225
312 311 311 309 309 309 309 310 311 312 310 310 309 309 309 307 306 307 306 306 304 303 300 297 295 294 292 289 286 282 277 272 267 263 259 255 249 244 240 235 232 231 227
312 312 311 310 308 309 309 310 311 310 309 309 310 308 309 308 309 308 305 303 301 301 300 298 296 294 292 289 286 282 277 272 267 261 256 254 250 244 240 236 231 229 228
311 311 311 310 311 311 311 312 311 312 310 309 310 311 310 309 309 305 303 302 302 303 301 299 296 294 293 292 288 283 278 273 266 261 256 250 248 245 239 235 233 229 226
311 311 311 312 312 313 312 310 311 311 312 312 309 309 310 309 308 306 306 305 306 304 301 299 297 295 294 293 290 286 280 274 269 263 258 252 247 245 242 236 232 229 225
312 312 313 313 314 312 311 314 314 313 312 310 310 310 310 310 309 309 307 308 306 304 302 301 300 298 297 294 290 286 281 276 267 265 261 255 249 244 241 237 233 229 227
313 315 315 314 314 315 313 312 314 316 314 312 310 309 309 310 310 309 309 307 305 304 302 301 300 299 299 298 295 288 281 276 271 261 259 254 251 243 239 236 233 228 225
315 315 315 316 316 315 316 316 316 314 312 311 311 312 312 312 312 311 309 307 306 304 304 303 303 304 303 299 294 289 284 278 272 264 259 255 250 244 239 236 233 228 224
316 316 316 315 315 316 316 315 314 314 312 311 312 313 311 312 312 310 308 307 306 305 304 302 302 303 302 298 295 292 284 280 278 272 264 258 251 245 240 236 233 227 224
317 317 316 315 315 316 316 315 314 315 315 314 312 312 312 312 311 309 308 307 307 305 303 302 304 305 303 297 294 290 287 285 281 274 269 263 256 248 239 235 232 227 224
317 317 316 315 315 315 316 315 313 315 314 313 313 313 311 311 311 309 308 308 307 306 304 303 304 304 300 295 292 289 287 286 283 277 269 263 258 250 239 231 229 224 222
Height
10690 10685 10681 10677 10672 10666 10660 10653 10645 10636 10633 10627 10622 10618 10614 10609 10598 10593 10594 10591 10588 10587 10588 10585 10579 10580 10580 10577 10578 10578 10577 10578 10580 10582 10586 10589 10591 10594 10598 10603 10608 10611 10615
10677 10672 10665 10660 10652 10647 10641 10635 10630 10625 10618 10611 10606 10601 10597 10593 10585 10577 10576 10576 10573 10567 10565 10565 10563 10560 10561 10561 10560 10558 10558 10561 10564 10566 10569 10572 10575 10579 10583 10587 10592 10597 10601
10664 10659 10650 10646 10639 10633 10626 10620 10614 10609 10602 10595 10586 10580 10577 10572 10564 10558 10555 10555 10553 10548 10544 10542 10541 10539 10538 10538 10538 10534 10537 10542 10543 10545 10551 10556 10560 10563 10566 10571 10576 10582 10586
10651 10644 10636 10631 10624 10619 10613 10606 10598 10590 10584 10578 10572 10564 10560 10553 10544 10533 10533 10529 10530 10526 10524 10521 10520 10517 10513 10513 10512 10511 10516 10520 10519 10525 10534 10536 10538 10542 10547 10553 10560 10566 10571
10639 10631 10624 10617 10611 10606 10600 10593 10585 10578 10569 10560 10553 10546 10540 10534 10525 10516 10511 10504 10503 10502 10498 10497 10496 10493 10491 10491 10490 10487 10492 10494 10500 10503 10509 10508 10512 10520 10527 10534 10540 10547 10554
10629 10620 10614 10606 10599 10593 10585 10578 10570 10562 10553 10546 10537 10529 10521 10516 10508 10501 10491 10483 10480 10477 10473 10473 10472 10472 10470 10468 10465 10464 10465 10470 10475 10477 10481 10486 10488 10494 10501 10509 10518 10526 10535
10615 10610 10602 10595 10587 10578 10571 10563 10554 10546 10537 10529 10525 10517 10506 10497 10491 10483 10473 10462 10455 10449 10446 10445 10443 10443 10443 10443 10444 10442 10439 10439 10442 10452 10456 10460 10462 10467 10475 10483 10492 10502 10510
10604 10594 10587 10581 10575 10565 10555 10547 10540 10531 10522 10512 10504 10500 10492 10479 10468 10460 10450 10438 10428 10419 10410 10405 10405 10408 10410 10412 10411 10410 10409 10410 10410 10412 10420 10429 10435 10441 10450 10459 10465 10474 10485
10591 10587 10577 10567 10558 10549 10538 10527 10519 10510 10502 10492 10482 10477 10472 10465 10455 10442 10427 10415 10400 10387 10376 10364 10362 10361 10363 10366 10368 10369 10373 10376 10377 10376 10377 10388 10401 10409 10419 10430 10441 10449 10457
10575 10567 10560 10553 10545 10535 10523 10513 10502 10491 10481 10473 10462 10453 10443 10436 10428 10420 10405 10393 10376 10360 10342 10327 10320 10315 10313 10314 10319 10324 10328 10331 10332 10335 10339 10343 10352 10368 10384 10396 10408 10422 10433
10565 10556 10547 10537 10526 10515 10503 10494 10483 10470 10460 10450 10437 10427 10416 10404 10390 10380 10371 10357 10344 10329 10315 10300 10289 10286 10281 10277 10274 10279 10284 10288 10292 10295 10297 10303 10311 10324 10340 10358 10372 10386 10404
10550 10540 10529 10518 10507 10495 10480 10471 10461 10449 10437 10426 10414 10400 10388 10375 10361 10348 10335 10323 10316 10301 10281 10265 10254 10253 10251 10248 10244 10243 10241 10243 10249 10257 10262 10265 10271 10284 10300 10314 10331 10347 10365
10530 10519 10508 10497 10485 10475 10460 10448 10436 10425 10412 10399 10384 10369 10355 10342 10331 10315 10301 10292 10283 10266 10249 10229 10220 10221 10220 10215 10212 10207 10207 10210 10211 10216 10221 10226 10231 10243 10261 10273 10288 10305 10325
10512 10501 10489 10477 10465 10456 10444 10427 10413 10400 10385 10369 10353 10338 10328 10315 10302 10283 10264 10257 10252 10236 10219 10202 10189 10189 10188 10183 10179 10178 10177 10174 10177 10181 10186 10192 10198 10207 10221 10232 10244 10264 10281
10493 10482 10471 10459 10446 10433 10423 10408 10393 10376 10360 10346 10332 10315 10299 10284 10267 10254 10238 10225 10216 10212 10196 10174 10165 10158 10157 10155 10151 10149 10146 10146 10148 10151 10155 10162 10168 10176 10185 10196 10210 10225 10243
10474 10462 10452 10440 10426 10411 10398 10385 10369 10354 10337 10320 10305 10290 10274 10256 10236 10221 10208 10195 10183 10175 10171 10152 10138 10133 10129 10128 10125 10123 10120 10119 10121 10123 10126 10133 10142 10146 10155 10165 10176 10188 10206
10456 10442 10432 10420 10407 10391 10376 10360 10345 10325 10309 10294 10277 10261 10243 10226 10209 10195 10180 10170 10157 10149 10142 10130 10119 10110 10108 10103 10100 10098 10095 10094 10096 10099 10101 10106 10113 10119 10128 10137 10147 10158 10175
10437 10423 10412 10399 10387 10369 10354 10337 10321 10306 10289 10271 10251 10233 10218 10201 10183 10169 10157 10146 10136 10126 10118 10109 10095 10090 10086 10083 10078 10074 10072 10072 10072 10076 10080 10083 10085 10094 10101 10109 10120 10131 10144
10420 10406 10391 10377 10364 10346 10327 10311 10295 10278 10260 10242 10225 10207 10191 10177 10161 10145 10136 10124 10114 10104 10095 10089 10079 10072 10065 10062 10057 10053 10051 10051 10049 10053 10057 10060 10063 10067 10075 10085 10095 10106 10117
10399 10386 10370 10354 10339 10323 10301 10287 10274 10256 10237 10218 10201 10184 10168 10155 10139 10124 10112 10103 10092 10084 10076 10069 10063 10054 10049 10043 10040 10034 10031 10031 10031 10033 10034 10038 10042 10045 10054 10064 10072 10077 10090
10375 10361 10346 10330 10312 10298 10279 10261 10246 10229 10210 10193 10175 10160 10146 10133 10117 10104 10091 10083 10075 10066 10057 10050 10044 10037 10032 10026 10023 10019 10014 10011 10015 10015 10013 10019 10021 10027 10032 10039 10047 10058 10072
10350 10333 10317 10302 10288 10270 10256 10236 10220 10204 10186 10170 10155 10140 10126 10112 10100 10086 10074 10065 10059 10049 10040 10034 10028 10022 10016 10009 10005 10003 10000 9997 9996 10001 9995 10001 10002 10007 10012 10018 10026 10040 10052
10323 10307 10292 10276 10262 10244 10228 10210 10194 10180 10161 10145 10130 10116 10102 10090 10080 10067 10059 10050 10041 10033 10025 10016 10010 10006 9998 9994 9991 9988 9984 9983 9981 9984 9978 9985 9985 9989 9995 10000 10008 10022 10031
10299 10282 10265 10250 10235 10220 10202 10186 10170 10155 10138 10122 10108 10096 10084 10072 10061 10049 10041 10034 10026 10017 10011 10004 9998 9993 9988 9980 9976 9974 9972 9970 9966 9966 9965 9969 9968 9974 9979 9983 9992 10004 10013
10272 10255 10239 10224 10208 10194 10177 10160 10146 10132 10114 10100 10088 10077 10064 10055 10045 10035 10026 10016 10010 10003 9997 9991 9985 9978 9974 9969 9964 9962 9958 9956 9955 9953 9952 9952 9953 9959 9964 9971 9978 9986 9996
10248 10231 10215 10199 10184 10169 10153 10136 10122 10109 10096 10082 10070 10060 10047 10039 10029 10020 10011 10003 9995 9989 9983 9978 9973 9967 9962 9958 9954 9950 9947 9945 9943 9941 9940 9939 9941 9946 9951 9956 9963 9971 9980